Eveleth, MN

11:02 AM CST on December 16, 2017 (GMT -0600)
Eveleth-Virginia Municipal

Weather History for KEVM - April, 2013

Change the Weather History Date:

Thursday, April 18, 2013

  Actual Average Record
Temperature  
Mean Temperature 30 °F -  
Max Temperature 32 °F 51 °F 85 °F (1987)
Min Temperature 27 °F 27 °F 14 °F (2014)
Degree Days  
Heating Degree Days 36    
Moisture  
Dew Point 28 °F    
Average Humidity 89    
Maximum Humidity 94    
Minimum Humidity 77    
Precipitation  
Precipitation 0.06 in - - ()
Sea Level Pressure  
Sea Level Pressure 29.78 in    
Wind  
Wind Speed 8 mph (NNE)    
Max Wind Speed 18 mph    
Max Gust Speed 31 mph    
Visibility 4 miles    
Events Snow    
Averages and records for this station are not official NWS values.
T = Trace of Precipitation, MM = Missing Value Source: NWS Daily Summary

Daily Weather History Graph

Daily Weather History Graph

Search for Another Location

Airport or City:

Trip Planner

Search our weather history database for the weather conditions in past years. The results will help you decide how hot, cold, wet, or windy it might be!

Date:

Astronomy

Apr. 18, 2013 Rise Set
Actual Time 6:15 AM CDT 8:03 PM CDT
Civil Twilight 5:42 AM CDT 8:36 PM CDT
Nautical Twilight 5:03 AM CDT 9:16 PM CDT
Astronomical Twilight 4:19 AM CDT 10:00 PM CDT
Moon 12:23 PM CDT (4/18) 2:24 AM CDT (4/18)
Length of Visible Light 14h 53m
Length of Day
13h 48m
First Quarter, 52% of the Moon is Illuminated
Apr 18
First Quarter
Apr 25
Full
May 2
Last Quarter
May 9
New
May 17
First Quarter

Hourly Weather History & Observations

Time (CDT) Temp. Windchill Dew Point Humidity Pressure Visibility Wind Dir Wind Speed Gust Speed Precip Events Conditions
12:09 AM 30.0 °F 25.2 °F 28.2 °F 93% 30.07 in 3.0 mi NE 4.6 mph - N/A Snow Light Snow
12:29 AM 30.0 °F 25.2 °F 28.4 °F 94% 30.05 in 2.0 mi NE 4.6 mph - 0.01 in Snow Light Snow
12:49 AM 30.0 °F 24.1 °F 28.4 °F 94% 30.03 in 2.0 mi NE 5.8 mph - 0.01 in Snow Light Snow
1:09 AM 30.0 °F 25.2 °F 28.2 °F 93% 30.03 in 3.0 mi NE 4.6 mph - N/A Snow Light Snow
1:30 AM 30.0 °F 26.5 °F 28.0 °F 92% 30.03 in 2.5 mi NNE 3.5 mph - N/A Snow Light Snow
1:49 AM 30.0 °F 26.5 °F 28.2 °F 93% 30.00 in 2.5 mi NNE 3.5 mph - N/A Snow Light Snow
2:09 AM 30.0 °F 24.1 °F 28.2 °F 93% 29.99 in 1.5 mi NNE 5.8 mph - N/A Snow Light Snow
2:30 AM 30.0 °F 24.1 °F 28.4 °F 94% 29.98 in 1.5 mi NNE 5.8 mph - 0.01 in Snow Light Snow
2:49 AM 30.0 °F 24.1 °F 28.4 °F 94% 29.96 in 1.8 mi NNE 5.8 mph - 0.01 in Snow Light Snow
3:09 AM 30.0 °F 24.1 °F 28.2 °F 93% 29.93 in 4.0 mi NNE 5.8 mph - N/A Snow Light Snow
3:30 AM 30.0 °F 23.2 °F 28.0 °F 92% 29.93 in 5.0 mi NNE 6.9 mph - 0.01 in Snow Light Snow
3:49 AM 30.0 °F 25.2 °F 27.5 °F 90% 29.93 in 5.0 mi North 4.6 mph - 0.01 in Snow Light Snow
4:09 AM 30.0 °F 22.4 °F 27.5 °F 90% 29.92 in 5.0 mi NNE 8.1 mph - N/A Snow Light Snow
4:29 AM 30.0 °F 23.2 °F 27.3 °F 90% 29.91 in 7.0 mi NNE 6.9 mph - N/A Snow Light Snow
4:49 AM 30.0 °F 23.2 °F 27.3 °F 90% 29.91 in 4.0 mi NNE 6.9 mph - N/A Snow Light Snow
5:10 AM 30.0 °F 23.2 °F 27.5 °F 90% 29.91 in 2.5 mi North 6.9 mph - N/A Snow Light Snow
5:29 AM 30.0 °F 25.2 °F 27.5 °F 90% 29.91 in 2.5 mi North 4.6 mph - N/A Snow Light Snow
5:49 AM 28.9 °F 20.4 °F 26.4 °F 90% 29.89 in 3.0 mi NE 9.2 mph - N/A Snow Light Snow
6:10 AM 27.5 °F 19.3 °F 25.3 °F 92% 29.89 in 1.8 mi NE 8.1 mph - N/A Snow Light Snow
6:29 AM 27.5 °F 18.0 °F 25.0 °F 90% 29.89 in 2.0 mi NE 10.4 mph 16.1 mph N/A Snow Light Snow
6:49 AM 27.5 °F 18.6 °F 24.4 °F 88% 29.89 in 3.0 mi NNE 9.2 mph - N/A Snow Light Snow
7:10 AM 27.5 °F 18.6 °F 24.3 °F 88% 29.89 in 3.0 mi NNE 9.2 mph - N/A Snow Light Snow
7:29 AM 27.5 °F 18.0 °F 23.9 °F 86% 29.88 in 4.0 mi NNE 10.4 mph - N/A Snow Light Snow
7:49 AM 27.7 °F 18.2 °F 24.3 °F 87% 29.88 in 5.0 mi NNE 10.4 mph 16.1 mph N/A   Overcast
8:10 AM 27.9 °F 19.1 °F 24.6 °F 88% 29.87 in 2.0 mi NNE 9.2 mph - N/A Snow Light Snow
8:29 AM 28.8 °F 20.2 °F 25.3 °F 87% 29.87 in 2.5 mi NNE 9.2 mph - N/A Snow Light Snow
8:49 AM 30.0 °F 22.4 °F 25.9 °F 85% 29.87 in 10.0 mi NNE 8.1 mph - N/A   Overcast
9:10 AM 30.0 °F 21.7 °F 25.7 °F 84% 29.86 in 10.0 mi NNE 9.2 mph 17.3 mph N/A   Overcast
9:29 AM 30.0 °F 20.0 °F 25.2 °F 82% 29.83 in 10.0 mi NNE 12.7 mph 23.0 mph N/A   Overcast
9:49 AM 30.0 °F 21.1 °F 24.8 °F 81% 29.84 in 10.0 mi North 10.4 mph 16.1 mph N/A   Overcast
10:10 AM 32.2 °F 25.0 °F 27.3 °F 82% 29.83 in 10.0 mi North 8.1 mph - N/A   Overcast
10:29 AM 32.2 °F 22.7 °F 27.1 °F 82% 29.79 in 10.0 mi North 12.7 mph 17.3 mph 0.01 in   Overcast
10:49 AM 32.2 °F 22.3 °F 26.6 °F 80% 29.80 in 10.0 mi NNE 13.8 mph - 0.01 in   Overcast
11:09 AM 32.2 °F 23.2 °F 26.2 °F 79% 29.79 in 10.0 mi NNE 11.5 mph 18.4 mph N/A   Overcast
11:29 AM 32.2 °F 22.7 °F 26.4 °F 79% 29.79 in 10.0 mi North 12.7 mph 18.4 mph N/A   Overcast
11:50 AM 32.2 °F 22.7 °F 25.7 °F 77% 29.76 in 10.0 mi NNE 12.7 mph 21.9 mph N/A   Overcast
12:09 PM 32.2 °F 22.7 °F 26.1 °F 78% 29.75 in 10.0 mi NNE 12.7 mph 18.4 mph N/A   Overcast
12:30 PM 32.2 °F 23.8 °F 26.4 °F 79% 29.76 in 10.0 mi North 10.4 mph 19.6 mph N/A   Overcast
12:49 PM 32.2 °F 23.2 °F 26.6 °F 80% 29.74 in 10.0 mi North 11.5 mph 16.1 mph N/A   Overcast
1:10 PM 32.2 °F 22.3 °F 27.0 °F 81% 29.74 in 5.0 mi NNE 13.8 mph 23.0 mph N/A   Haze
1:29 PM 32.2 °F 24.4 °F 27.0 °F 81% 29.74 in 10.0 mi North 9.2 mph 17.3 mph N/A   Overcast
1:49 PM 32.2 °F 24.4 °F 27.1 °F 82% 29.76 in 10.0 mi North 9.2 mph - N/A   Overcast
2:10 PM 32.2 °F 23.8 °F 27.5 °F 83% 29.73 in 4.0 mi North 10.4 mph 18.4 mph N/A Snow Light Snow
2:29 PM 32.2 °F 25.0 °F 28.0 °F 85% 29.73 in 1.8 mi North 8.1 mph - N/A Snow Light Snow
2:49 PM 32.2 °F 24.4 °F 28.4 °F 86% 29.73 in 5.0 mi North 9.2 mph - N/A Snow Light Snow
3:29 PM 32.2 °F 25.8 °F 28.9 °F 88% 29.72 in 1.5 mi North 6.9 mph 16.1 mph N/A Snow Light Snow
3:49 PM 32.2 °F 25.0 °F 30.0 °F 92% 29.71 in 0.5 mi North 8.1 mph - N/A Snow Snow
4:10 PM 32.2 °F 25.8 °F 30.4 °F 93% 29.71 in 0.8 mi North 6.9 mph - 0.01 in Snow Light Snow
4:29 PM 32.2 °F 25.8 °F 30.2 °F 92% 29.69 in 0.8 mi North 6.9 mph 17.3 mph 0.01 in Snow Light Snow
4:49 PM 32.2 °F 23.8 °F 30.0 °F 92% 29.67 in 1.0 mi North 10.4 mph 20.7 mph 0.02 in Snow Light Snow
5:10 PM 32.2 °F 24.4 °F 30.0 °F 92% 29.67 in 0.8 mi North 9.2 mph 21.9 mph N/A Snow Light Snow
5:29 PM 32.2 °F 21.8 °F 30.0 °F 92% 29.66 in 1.2 mi North 15.0 mph 27.6 mph N/A Snow Light Snow
5:49 PM 32.2 °F 23.8 °F 29.8 °F 91% 29.66 in 1.0 mi North 10.4 mph 19.6 mph N/A Snow Light Snow
6:10 PM 32.2 °F 23.2 °F 30.0 °F 92% 29.65 in 0.8 mi North 11.5 mph 17.3 mph N/A Snow Light Snow
6:29 PM 32.2 °F 23.8 °F 30.2 °F 92% 29.66 in 0.5 mi North 10.4 mph 19.6 mph N/A Snow Snow
6:49 PM 32.2 °F 22.7 °F 30.2 °F 92% 29.64 in 0.5 mi North 12.7 mph 20.7 mph 0.01 in Snow Snow
7:10 PM 32.2 °F 23.2 °F 30.6 °F 94% 29.63 in 0.8 mi North 11.5 mph 21.9 mph N/A Snow Light Snow
7:29 PM 32.2 °F 22.7 °F 30.6 °F 94% 29.63 in 0.5 mi NNE 12.7 mph 20.7 mph N/A Snow Light Snow
7:49 PM 32.2 °F 23.8 °F 30.6 °F 94% 29.60 in 0.8 mi North 10.4 mph 24.2 mph N/A Snow Snow
8:09 PM 32.2 °F 23.8 °F 30.6 °F 94% 29.63 in 1.2 mi North 10.4 mph 17.3 mph N/A Snow Light Snow
8:29 PM 32.2 °F 21.8 °F 30.2 °F 92% 29.58 in 1.0 mi North 15.0 mph 23.0 mph N/A Snow Snow
8:50 PM 32.2 °F 22.7 °F 30.6 °F 94% 29.58 in 1.2 mi North 12.7 mph 24.2 mph N/A Snow Light Snow
9:09 PM 32.2 °F 22.7 °F 30.2 °F 92% 29.60 in 1.2 mi North 12.7 mph 16.1 mph N/A Snow Light Snow
9:29 PM 32.2 °F 22.3 °F 30.2 °F 92% 29.62 in 1.5 mi North 13.8 mph 20.7 mph N/A Snow Light Snow
9:50 PM 32.2 °F 22.7 °F 29.3 °F 89% 29.62 in 2.5 mi NNE 12.7 mph 25.3 mph N/A Snow Light Snow
10:30 PM 32.2 °F 20.7 °F 29.8 °F 91% 29.54 in 1.5 mi NNE 18.4 mph 31.1 mph N/A Snow Light Snow
10:49 PM 32.2 °F 21.1 °F 30.2 °F 92% 29.55 in 1.2 mi NNE 17.3 mph 25.3 mph N/A Snow Snow
11:10 PM 31.6 °F 23.1 °F 29.7 °F 92% 29.54 in 1.0 mi North 10.4 mph 25.3 mph N/A Snow Snow
11:30 PM 30.0 °F 20.0 °F 27.5 °F 90% 29.54 in 1.5 mi North 12.7 mph 21.9 mph N/A Snow Light Snow
11:49 PM 30.0 °F 18.7 °F 27.3 °F 90% 29.54 in 1.5 mi North 16.1 mph 25.3 mph N/A Snow Light Snow